Flag for Canada Weather past 2 weeks in Québec, Quebec, Canada

Now
63 °F

Passing clouds.


Feels Like: 63 °F
Forecast: 59 / 73 °F
Wind: 3 mph from Southwest

Location: Quebec Weather Station

Current Time: Aug 1, 2015 at 2:05:11 AM

Latest Report: Aug 1, 2015 at 1:00 AM


Visibility: 15 mi

Pressure: 29.66 "Hg

Humidity: 100%

Dew point: 63 °F

Location of QuébecLocation

Historic Weather in Québec — Graph

°F

Québec temperature yesterday

Maximum temperature yesterday: 77 °F (at 5:00 PM)
Minimum temperature yesterday: 64 °F (at 4:00 AM)
Average temperature yesterday: 69 °F

Past Weeks' High & Low Weather Summary

 TemperatureHumidityPressure
High86 °F (Jul 29, 4:00 PM)100% (Jul 18, 3:00 PM)30.13 "Hg (Jul 18, 3:00 PM)
Low52 °F (Jul 17, 2:00 AM)31% (Jul 28, 2:00 PM)29.51 "Hg (Jul 21, 5:00 PM)
Average66 °F81%29.81 "Hg
* Reported Jul 17 1:00 AM — Aug 1 1:00 AM, Québec, Weather by CustomWeather, © 2015

Note: Actual official high and low records may vary slightly from our data, if they occured in-between our weather recording intervals... More about our weather records

Advertising

Québec weather history for previous 24 hours

 ConditionsComfort  
Time TempWeatherWind HumidityBarometerVisibility
1:00 AM
Sat, Aug 1
63 °FPassing clouds.3 mph100%29.66 "Hg15 mi
12:00 AM64 °FMostly cloudy.3 mph94%29.69 "Hg15 mi
11:00 PM
Fri, Jul 31
66 °FSprinkles. Passing clouds.8 mph88%29.68 "Hg15 mi
10:00 PM68 °FPassing clouds.5 mph78%29.65 "Hg15 mi
9:00 PM66 °FBroken clouds.6 mph83%29.67 "Hg15 mi
8:00 PM72 °FScattered showers. Partly sunny.3 mph73%29.65 "Hg30 mi
7:00 PM72 °FScattered clouds.7 mph69%29.65 "Hg30 mi
6:00 PM75 °FScattered clouds.14 mph57%29.64 "Hg30 mi
5:00 PM77 °FPassing clouds.10 mph54%29.64 "Hg30 mi
4:00 PM75 °FScattered clouds.13 mph57%29.65 "Hg30 mi
3:00 PM75 °FScattered clouds.14 mph61%29.65 "Hg30 mi
2:00 PM72 °FScattered showers. Broken clouds.14 mph78%29.66 "Hg30 mi
1:45 PM70 °FScattered showers. Broken clouds.12 mph78%29.66 "Hg30 mi
1:00 PM66 °FSprinkles. Partly sunny.7 mph94%29.66 "Hg15 mi
12:00 PM72 °FScattered clouds.15 mph83%29.65 "Hg25 mi
11:00 AM66 °FSprinkles. Broken clouds.14 mph94%29.66 "Hg5 mi
10:00 AM72 °FBroken clouds.14 mph83%29.65 "Hg25 mi
9:00 AM66 °FScattered clouds.7 mph94%29.64 "Hg25 mi
8:00 AM66 °FScattered showers. Mostly cloudy.10 mph94%29.65 "Hg25 mi
7:46 AM66 °FPartly sunny.9 mph94%29.65 "Hg25 mi
7:00 AM66 °FFog.6 mph100%29.64 "Hg5 mi
6:00 AM66 °FPassing clouds.6 mph94%29.63 "Hg7 mi
5:00 AM64 °FPassing clouds.6 mph94%29.62 "Hg8 mi
4:00 AM64 °FPassing clouds.3 mph100%29.62 "Hg15 mi
3:00 AM66 °FPassing clouds.5 mph100%29.62 "Hg15 mi
2:00 AM70 °FPassing clouds.9 mph94%29.62 "Hg12 mi
Weather by CustomWeather, © 2015

See weather overviewHow to use our weather pages